Regional Weather Roundup
Issued by NWS Newport/Morehead, NC

Current Version | Previous Version | Graphics & Text | Print | Product List | Glossary On
Versions: 1 2 3 4 5 6 7 8 9 10 11 12 13 14 15 16 17 18 19 20 21 22 23 24 25 26 27 28 29 30 31 32 33 34 35 36 37 38 39 40 41 42 43 44 45 46 47 48 49 50
000 ASUS42 KMHX 300113 RWRMHX WEATHER ROUNDUP FOR EASTERN NORTH CAROLINA NATIONAL WEATHER SERVICE NEWPORT/MOREHEAD CITY NC 900 PM EDT WED JUL 29 2015 NOTE: "FAIR" INDICATES FEW OR NO CLOUDS BELOW 12,000 FEET WITH NO SIGNIFICANT WEATHER AND/OR OBSTRUCTIONS TO VISIBILITY NCZ015>017-031-032-045>047-102-103-300200- NORTH COAST CITY SKY/WX TMP DP RH WIND PRES REMARKS EDENTON N/A 80 70 71 SE5 29.98R ELIZABETH CITY PTCLDY 79 72 79 SE7 29.99R KITTY HAWK CLEAR 79 70 73 E5 29.98R MANTEO CLEAR 79 70 74 SE6 29.98S $$ NCZ045>047-081-094-103-104-300200- CENTRAL COAST CITY SKY/WX TMP DP RH WIND PRES REMARKS FRISCO PTCLDY 81 74 79 E9 29.97S SWANQUARTER N/A 77 N/A N/A NE2 29.94S $$ NCZ095-097-098-100-101-300200- SOUTHERN COAST CITY SKY/WX TMP DP RH WIND PRES REMARKS BEAUFORT PTCLDY 80 76 87 NE6 29.95S CEDAR ISLAND N/A 82 N/A N/A E14G20 30.00S JACKSONVILLE PTCLDY 82 70 66 E9 29.96R PINEY ISLAND PTCLDY N/A N/A N/A MISG 29.96S WILMINGTON PTCLDY 80 73 79 E6 29.96R $$ NCZ011>013-027>030-043-044-078>080-089-090>093-098-300200- COASTAL PLAIN CITY SKY/WX TMP DP RH WIND PRES REMARKS AHOSKIE CLEAR 80 71 74 SE5 29.98R CLINTON CLEAR 82 74 77 CALM 29.97R ELIZABETHTOWN CLEAR 82 69 65 SE5 29.96R GOLDSBORO PTCLDY 82 70 68 E6 29.95R GREENVILLE CLEAR 81 73 78 SE6 29.99S HAVELOCK PTCLDY 79 72 79 E5 29.97S KENANSVILLE CLEAR 79 69 70 CALM 29.98R KINSTON CLEAR 82 70 65 E5 29.98R NEW BERN PTCLDY 80 70 71 E6 29.98R RICHLANDS CLEAR 81 68 65 NE6 29.97R ROCKY MOUNT PTCLDY 83 68 60 S3 29.97R WASHINGTON PTCLDY 78 71 78 SE3 29.98S WHITEVILLE CLEAR 82 69 66 E3 29.96R $$ AMZ130-135-150-152-154-156-158-170-250-252-270-ANZ085-086-088-633-658-670-300200- MARINE OBSERVATIONS STATION/POSITION TIME TEMP WIND PRES WAVE SWELL AIR SEA DIR/SP/G HT/PER HT/PER (UTC) (F) (DEG/KT/KT) (MB) (FT/S) (FT/S) CHESAPEAKE LIGHT 0100 80 160/ 17/ 18 1015.6 64 E VA BEACH 0050 81 82 150/ 12/ 14 1015.2 2/ 6 2/ 6 DUCK 0000 79 64 N/A 2 E DUCK 0011 79 N/A 2/11 OREGON INLET 0000 80 87 N/A 13E OREGON INLT 0100 81 N/A 3/ 6 HATTERAS CG 0000 81 84 N/A DIAMOND BUOY 2350 82 85 100/ 16/ 19 1014.3 4/ 6 2/10 CAPE LOOKOUT 0100 81 60/ 11/ 13 1013.8 BEAUFORT LAB 0000 82 81 N/A 30 SE NEW RVR IN NOT AVBL 27 SE WRIGHTSVLE 0000 79 82 70/ 14/ 16 N/A 5 SE WRIGHTSVLE 0008 82 82 90/ 14/ 19 1013.8 225 S CAPE HAT 0050 83 82 210/ 16/ 19 1015.4 5/ 7 2/10 41 SE CHARLESTON 0050 84 85 70/ 12/ 16 1013.1 4/ 5 2/ 7 $$

USA.gov is the U.S. government's official web portal to all federal, state and local government web resources and services.